#timestamp,LO_Frequency,Hit,Temp,Hum 
1479679215.5,286047018.1,N,0.0,0.0
1479679235.3,286047019.7,N,0.0,0.0
1479679255.1,286047021.6,N,0.0,0.0
1479679275.9,286047020.1,N,0.0,0.0
1479679295.7,286047019.5,N,0.0,0.0
1479679315.6,286047021.1,N,0.0,0.0
1479679335.4,286047023.5,N,0.0,0.0
1479679355.2,286047023.2,N,0.0,0.0
1479679375.1,286047021.2,N,0.0,0.0
1479679376.0,286047021.2,N,0.0,0.0
1479679395.8,286047022.3,N,0.0,0.0
1479679415.6,286047022.7,N,0.0,0.0
1479679435.5,286047022.5,N,0.0,0.0
1479679455.3,286047024.9,N,0.0,0.0
1479679475.2,286047024.3,N,0.0,0.0
1479679495.9,286047026.5,N,0.0,0.0
1479679515.7,286047026.8,N,0.0,0.0
1479679535.6,286047026.2,N,0.0,0.0
1479679555.4,286047028.4,N,0.0,0.0
1479679575.2,286047025.3,N,0.0,0.0
1479679595.1,286047026.7,N,0.0,0.0
1479679596.0,286047026.7,N,0.0,0.0
1479679615.8,286047025.3,N,0.0,0.0
1479679635.7,286047026.2,N,0.0,0.0
1479679655.5,286047025.6,N,0.0,0.0
1479679675.3,286047026.3,N,0.0,0.0
1479679695.2,286047025.3,N,0.0,0.0
1479679715.0,286047028.0,N,0.0,0.0
1479679715.9,286047028.0,N,0.0,0.0
1479679735.8,286047028.4,N,0.0,0.0
1479679755.6,286047027.9,N,0.0,0.0
1479679775.4,286047030.0,N,0.0,0.0
1479679795.3,286047029.7,N,0.0,0.0
1479679815.1,286047028.8,N,0.0,0.0
1479679835.8,286047027.0,N,0.0,0.0
1479679855.7,286047027.2,N,0.0,0.0
1479679875.5,286047029.0,N,0.0,0.0
1479679895.4,286047030.8,N,0.0,0.0
1479679915.2,286047030.1,N,0.0,0.0
1479679935.0,286047030.7,N,0.0,0.0
1479679935.9,286047030.7,N,0.0,0.0
1479679955.8,286047033.2,N,0.0,0.0
1479679975.6,286047032.0,N,0.0,0.0
1479679995.4,286047033.1,N,0.0,0.0
1479680015.3,286047031.1,N,0.0,0.0
1479680035.1,286047030.1,N,0.0,0.0
1479680055.9,286047032.6,N,0.0,0.0
1479680075.7,286047032.6,N,0.0,0.0
1479680095.5,286047032.2,N,0.0,0.0
1479680115.4,286047034.7,N,0.0,0.0
1479680135.2,286047033.3,N,0.0,0.0
1479680155.0,286047033.5,N,0.0,0.0
1479680155.9,286047033.5,N,0.0,0.0
1479680175.8,286047033.7,N,0.0,0.0
1479680195.6,286047036.4,N,0.0,0.0
1479680215.5,286047033.7,N,0.0,0.0
1479680235.3,286047032.9,N,0.0,0.0
1479680255.1,286047032.2,N,0.0,0.0
1479680275.9,286047033.5,N,0.0,0.0
1479680295.7,286047035.5,N,0.0,0.0
1479680315.5,286047035.9,N,0.0,0.0
1479680335.4,286047036.1,N,0.0,0.0
1479680355.2,286047034.9,N,0.0,0.0
1479680375.1,286047037.3,N,0.0,0.0
1479680376.0,286047037.3,N,0.0,0.0
1479680395.8,286047037.9,N,0.0,0.0
1479680415.6,286047035.1,N,0.0,0.0
1479680435.5,286047037.8,N,0.0,0.0
1479680455.3,286047039.4,N,0.0,0.0
1479680475.2,286047039.2,N,0.0,0.0
1479680495.9,286047039.6,N,0.0,0.0
1479680515.7,286047039.4,N,0.0,0.0
1479680535.6,286047038.2,N,0.0,0.0
1479680555.4,286047041.1,N,0.0,0.0
1479680575.2,286047040.5,N,0.0,0.0
1479680595.1,286047040.4,N,0.0,0.0
1479680596.0,286047040.4,N,0.0,0.0
1479680615.8,286047040.0,N,0.0,0.0
1479680635.7,286047040.7,N,0.0,0.0
1479680655.5,286047042.8,N,0.0,0.0
1479680675.3,286047039.7,N,0.0,0.0
1479680695.2,286047041.9,N,0.0,0.0
1479680715.0,286047041.6,N,0.0,0.0
1479680715.9,286047041.6,N,0.0,0.0
1479680735.8,286047041.3,N,0.0,0.0
1479680755.6,286047043.9,N,0.0,0.0
1479680775.4,286047043.1,N,0.0,0.0
1479680795.3,286047044.1,N,0.0,0.0
1479680815.1,286047043.1,N,0.0,0.0
1479680835.8,286047043.6,N,0.0,0.0
1479680855.7,286047042.9,N,0.0,0.0
1479680875.5,286047042.9,N,0.0,0.0
1479680895.4,286047045.7,N,0.0,0.0
1479680915.2,286047045.2,N,0.0,0.0
1479680935.0,286047045.4,N,0.0,0.0
1479680935.9,286047045.4,N,0.0,0.0
1479680955.8,286047041.4,N,0.0,0.0
1479680975.6,286047044.4,N,0.0,0.0
1479680995.4,286047044.3,N,0.0,0.0
1479681015.3,286047043.8,N,0.0,0.0
1479681035.1,286047041.8,N,0.0,0.0
1479681055.9,286047040.3,N,0.0,0.0
1479681075.7,286047038.2,N,0.0,0.0
1479681095.5,286047042.2,N,0.0,0.0
1479681115.4,286047040.4,N,0.0,0.0
1479681135.2,286047040.5,N,0.0,0.0
1479681155.0,286047038.7,N,0.0,0.0
1479681156.0,286047038.7,N,0.0,0.0
1479681175.8,286047042.2,N,0.0,0.0
1479681195.6,286047040.7,N,0.0,0.0
1479681215.5,286047040.0,N,0.0,0.0
1479681235.3,286047039.9,N,0.0,0.0
1479681255.1,286047039.9,N,0.0,0.0
1479681275.9,286047040.8,N,0.0,0.0
1479681295.7,286047042.5,N,0.0,0.0
1479681315.6,286047043.9,N,0.0,0.0
1479681335.4,286047047.5,N,0.0,0.0
1479681355.2,286047044.5,N,0.0,0.0
1479681375.1,286047044.8,N,0.0,0.0
1479681376.0,286047044.8,N,0.0,0.0
1479681395.8,286047046.4,N,0.0,0.0
1479681415.6,286047050.8,N,0.0,0.0
1479681435.5,286047046.2,N,0.0,0.0
1479681455.3,286047050.8,N,0.0,0.0
1479681475.2,286047049.7,N,0.0,0.0
1479681495.9,286047051.6,N,0.0,0.0
1479681515.7,286047051.9,N,0.0,0.0
1479681535.6,286047051.4,N,0.0,0.0
1479681555.4,286047052.5,N,0.0,0.0
1479681575.2,286047055.0,N,0.0,0.0
1479681595.1,286047053.4,N,0.0,0.0
1479681596.0,286047053.4,N,0.0,0.0
1479681615.8,286047051.5,N,0.0,0.0
1479681635.7,286047052.4,N,0.0,0.0
1479681655.5,286047052.7,N,0.0,0.0
1479681675.3,286047052.2,N,0.0,0.0
1479681695.2,286047049.8,N,0.0,0.0
1479681715.9,286047049.3,N,0.0,0.0
1479681735.7,286047050.0,N,0.0,0.0
1479681755.6,286047048.3,N,0.0,0.0
1479681775.4,286047048.1,N,0.0,0.0
1479681795.3,286047047.9,N,0.0,0.0
1479681815.1,286047050.5,N,0.0,0.0
1479681816.0,286047050.5,N,0.0,0.0
1479681835.8,286047050.6,N,0.0,0.0
1479681855.7,286047047.8,N,0.0,0.0
1479681875.5,286047049.3,N,0.0,0.0
1479681895.3,286047052.1,N,0.0,0.0
1479681915.2,286047054.0,N,0.0,0.0
1479681935.0,286047053.1,N,0.0,0.0
1479681935.9,286047053.1,N,0.0,0.0
1479681955.8,286047055.2,N,0.0,0.0
1479681975.6,286047052.6,N,0.0,0.0
1479681995.4,286047055.2,N,0.0,0.0
1479682015.3,286047053.4,N,0.0,0.0
1479682035.1,286047055.5,N,0.0,0.0
1479682055.9,286047052.7,N,0.0,0.0
1479682075.7,286047055.5,N,0.0,0.0
1479682095.5,286047053.7,N,0.0,0.0
1479682115.4,286047055.5,N,0.0,0.0
1479682135.2,286047052.7,N,0.0,0.0
1479682155.0,286047051.2,N,0.0,0.0
1479682155.9,286047051.2,N,0.0,0.0
1479682175.8,286047054.4,N,0.0,0.0
1479682195.6,286047054.7,N,0.0,0.0
1479682215.5,286047054.4,N,0.0,0.0
1479682235.3,286047052.7,N,0.0,0.0
1479682255.1,286047053.9,N,0.0,0.0
1479682275.9,286047051.5,N,0.0,0.0
1479682295.7,286047051.2,N,0.0,0.0
1479682315.5,286047052.7,N,0.0,0.0
1479682335.4,286047056.6,N,0.0,0.0
1479682355.2,286047054.6,N,0.0,0.0
1479682375.1,286047054.1,N,0.0,0.0
1479682376.0,286047054.1,N,0.0,0.0
1479682395.8,286047054.7,N,0.0,0.0
1479682415.6,286047054.3,N,0.0,0.0
1479682435.5,286047056.0,N,0.0,0.0
1479682455.3,286047059.8,N,0.0,0.0
1479682475.2,286047059.7,N,0.0,0.0
1479682495.9,286047060.3,N,0.0,0.0
1479682515.7,286047061.9,N,0.0,0.0
1479682535.6,286047059.7,N,0.0,0.0
1479682555.4,286047055.8,N,0.0,0.0
1479682575.2,286047059.9,N,0.0,0.0
1479682595.1,286047061.2,N,0.0,0.0
1479682596.0,286047061.2,N,0.0,0.0
1479682615.8,286047061.3,N,0.0,0.0
1479682635.7,286047063.2,N,0.0,0.0
1479682655.5,286047063.0,N,0.0,0.0
1479682675.3,286047064.8,N,0.0,0.0
1479682695.2,286047066.6,N,0.0,0.0
1479682715.0,286047066.3,N,0.0,0.0
1479682715.9,286047066.3,N,0.0,0.0
1479682735.8,286047066.7,N,0.0,0.0
1479682755.6,286047066.4,N,0.0,0.0
1479682775.4,286047068.4,N,0.0,0.0
1479682795.3,286047067.9,N,0.0,0.0
